| time (UTC) | temp F | wind direction | speed knots | gust knots | rain 1hr in | rain 24hr in | rain mn in | humidity % | barometer mb |
| 20260902194833 | 93 | 249 | 3.5 | 6.1 | 0.00 | 0.00 | 0.00 | 63 | 1017.6 |
| 20260902194325 | 93 | 235 | 1.7 | 7.8 | 0.00 | 0.00 | 0.00 | 64 | 1017.6 |
| 20260902193818 | 93 | 186 | 2.6 | 9.6 | 0.00 | 0.00 | 0.00 | 64 | 1017.7 |
| 20260902193315 | 93 | 212 | 4.3 | 9.6 | 0.00 | 0.00 | 0.00 | 64 | 1017.8 |
| 20260902192828 | 93 | 245 | 2.6 | 7.0 | 0.00 | 0.00 | 0.00 | 62 | 1017.9 |
| 20260902192321 | 93 | 231 | 1.7 | 7.0 | 0.00 | 0.00 | 0.00 | 63 | 1017.9 |
| 20260902191834 | 93 | 240 | 2.6 | 7.8 | 0.00 | 0.00 | 0.00 | 63 | 1018.0 |
| 20260902191326 | 93 | 219 | 0.9 | 7.8 | 0.00 | 0.00 | 0.00 | 63 | 1018.0 |
| 20260902190818 | 93 | 188 | 3.5 | 7.8 | 0.00 | 0.00 | 0.00 | 66 | 1018.1 |
| 20260902190311 | 93 | 230 | 3.5 | 7.8 | 0.00 | 0.00 | 0.00 | 65 | 1018.1 |
| 20260902185845 | 93 | 231 | 0.9 | 7.8 | 0.00 | 0.00 | 0.00 | 64 | 1018.1 |
| 20260902185319 | 92 | 240 | 5.2 | 8.7 | 0.00 | 0.00 | 0.00 | 61 | 1018.1 |
| 20260902184833 | 92 | 293 | 4.3 | 8.7 | 0.00 | 0.00 | 0.00 | 62 | 1018.2 |
| 20260902184325 | 93 | 259 | 2.6 | 7.8 | 0.00 | 0.00 | 0.00 | 61 | 1018.2 |
| 20260902183817 | 93 | 219 | 1.7 | 8.7 | 0.00 | 0.00 | 0.00 | 62 | 1018.2 |
| 20260902183351 | 93 | 186 | 2.6 | 8.7 | 0.00 | 0.00 | 0.00 | 62 | 1018.2 |
| 20260902182822 | 93 | 205 | 2.6 | 5.2 | 0.00 | 0.00 | 0.00 | 62 | 1018.2 |
| 20260902182315 | 92 | 248 | 1.7 | 7.0 | 0.00 | 0.00 | 0.00 | 64 | 1018.2 |
| 20260902181828 | 92 | 160 | 1.7 | 7.0 | 0.00 | 0.00 | 0.00 | 64 | 1018.2 |
| 20260902181321 | 92 | 259 | 2.6 | 8.7 | 0.00 | 0.00 | 0.00 | 66 | 1018.3 |
| 20260902180814 | 92 | 268 | 4.3 | 8.7 | 0.00 | 0.00 | 0.00 | 66 | 1018.3 |
| 20260902180311 | 92 | 250 | 2.6 | 8.7 | 0.00 | 0.00 | 0.00 | 64 | 1018.4 |
| 20260902175824 | 92 | 263 | 4.3 | 8.7 | 0.00 | 0.00 | 0.00 | 65 | 1018.4 |
| 20260902175337 | 92 | 258 | 2.6 | 8.7 | 0.00 | 0.00 | 0.00 | 63 | 1018.4 |
| 20260902174828 | 92 | 247 | 4.3 | 8.7 | 0.00 | 0.00 | 0.00 | 63 | 1018.4 |
| 20260902174321 | 92 | 296 | 5.2 | 9.6 | 0.00 | 0.00 | 0.00 | 65 | 1018.5 |
| 20260902173814 | 92 | 253 | 1.7 | 8.7 | 0.00 | 0.00 | 0.00 | 67 | 1018.6 |
| 20260902173347 | 91 | 213 | 3.5 | 9.6 | 0.00 | 0.00 | 0.00 | 68 | 1018.7 |
| 20260902172818 | 91 | 231 | 3.5 | 14.8 | 0.00 | 0.00 | 0.00 | 64 | 1018.8 |
| 20260902172312 | 91 | 191 | 2.6 | 7.8 | 0.00 | 0.00 | 0.00 | 66 | 1018.8 |
| 20260902171829 | 91 | 256 | 1.7 | 8.7 | 0.00 | 0.00 | 0.00 | 66 | 1018.8 |
| 20260902171341 | 91 | 269 | 5.2 | 8.7 | 0.00 | 0.00 | 0.00 | 64 | 1018.9 |
| 20260902170833 | 91 | 274 | 1.7 | 9.6 | 0.00 | 0.00 | 0.00 | 66 | 1019.0 |
| 20260902170345 | 91 | 257 | 2.6 | 9.6 | 0.00 | 0.00 | 0.00 | 64 | 1019.0 |
| 20260902165836 | 91 | 269 | 4.3 | 9.6 | 0.00 | 0.00 | 0.00 | 66 | 1019.0 |
| 20260902165328 | 91 | 268 | 5.2 | 8.7 | 0.00 | 0.00 | 0.00 | 65 | 1019.0 |
| 20260902164820 | 91 | 268 | 5.2 | 8.7 | 0.00 | 0.00 | 0.00 | 67 | 1019.0 |
| 20260902164333 | 90 | 238 | 1.7 | 7.8 | 0.00 | 0.00 | 0.00 | 69 | 1019.1 |
| 20260902163824 | 90 | 243 | 5.2 | 7.8 | 0.00 | 0.00 | 0.00 | 66 | 1019.0 |
| 20260902163317 | 90 | 281 | 3.5 | 7.8 | 0.00 | 0.00 | 0.00 | 67 | 1019.1 |
| 20260902162830 | 90 | 269 | 2.6 | 8.7 | 0.00 | 0.00 | 0.00 | 67 | 1019.1 |
| 20260902162324 | 90 | 277 | 4.3 | 8.7 | 0.00 | 0.00 | 0.00 | 69 | 1019.1 |
| 20260902161836 | 90 | 212 | 3.5 | 8.7 | 0.00 | 0.00 | 0.00 | 69 | 1019.1 |
| 20260902161329 | 90 | 274 | 3.5 | 6.1 | 0.00 | 0.00 | 0.00 | 68 | 1019.1 |
| 20260902160821 | 90 | 264 | 2.6 | 7.0 | 0.00 | 0.00 | 0.00 | 70 | 1019.1 |
| 20260902160314 | 90 | 254 | 2.6 | 7.8 | 0.00 | 0.00 | 0.00 | 70 | 1019.1 |
| 20260902155827 | 89 | 272 | 3.5 | 7.8 | 0.00 | 0.00 | 0.00 | 70 | 1019.1 |
| 20260902155320 | 89 | 263 | 1.7 | 7.0 | 0.00 | 0.00 | 0.00 | 71 | 1019.2 |
| 20260902154813 | 89 | 273 | 3.5 | 7.0 | 0.00 | 0.00 | 0.00 | 72 | 1019.1 |
| 20260902154309 | 89 | 278 | 2.6 | 8.7 | 0.00 | 0.00 | 0.00 | 73 | 1019.2 |
| 20260902153823 | 88 | 250 | 4.3 | 8.7 | 0.00 | 0.00 | 0.00 | 71 | 1019.2 |
| 20260902153315 | 88 | 272 | 3.5 | 6.1 | 0.00 | 0.00 | 0.00 | 72 | 1019.3 |
| 20260902152848 | 88 | 276 | 2.6 | 7.8 | 0.00 | 0.00 | 0.00 | 72 | 1019.3 |
| 20260902152320 | 88 | 278 | 2.6 | 7.8 | 0.00 | 0.00 | 0.00 | 73 | 1019.3 |
| 20260902151811 | 88 | 192 | 0.9 | 7.0 | 0.00 | 0.00 | 0.00 | 76 | 1019.4 |
| 20260902151325 | 88 | 296 | 1.7 | 5.2 | 0.00 | 0.00 | 0.00 | 76 | 1019.3 |
| 20260902150817 | 87 | 250 | 1.7 | 5.2 | 0.00 | 0.00 | 0.00 | 75 | 1019.4 |
| 20260902150327 | 87 | 270 | 1.7 | 5.2 | 0.00 | 0.00 | 0.00 | 73 | 1019.3 |
| 20260902145823 | 87 | 266 | 2.6 | 7.0 | 0.00 | 0.00 | 0.00 | 76 | 1019.4 |
| 20260902145316 | 86 | 221 | 3.5 | 7.0 | 0.00 | 0.00 | 0.00 | 75 | 1019.4 |
| 20260902144848 | 86 | 235 | 4.3 | 6.1 | 0.00 | 0.00 | 0.00 | 76 | 1019.4 |
| 20260902144320 | 86 | 264 | 3.5 | 7.0 | 0.00 | 0.00 | 0.00 | 77 | 1019.5 |
| 20260902143812 | 86 | 258 | 5.2 | 7.0 | 0.00 | 0.00 | 0.00 | 78 | 1019.5 |
| 20260902143324 | 85 | 246 | 3.5 | 6.1 | 0.00 | 0.00 | 0.00 | 78 | 1019.5 |
| 20260902142836 | 85 | 240 | 3.5 | 7.0 | 0.00 | 0.00 | 0.00 | 78 | 1019.4 |
| 20260902142328 | 85 | 271 | 3.5 | 6.1 | 0.00 | 0.00 | 0.00 | 77 | 1019.3 |
| 20260902141818 | 84 | 258 | 4.3 | 6.1 | 0.00 | 0.00 | 0.00 | 78 | 1019.3 |
| 20260902141315 | 84 | 282 | 3.5 | 6.1 | 0.00 | 0.00 | 0.00 | 80 | 1019.3 |
| 20260902140828 | 84 | 257 | 3.5 | 6.1 | 0.00 | 0.00 | 0.00 | 81 | 1019.3 |
| 20260902140321 | 83 | 248 | 2.6 | 6.1 | 0.00 | 0.00 | 0.00 | 80 | 1019.3 |
| 20260902135812 | 83 | 262 | 3.5 | 7.8 | 0.00 | 0.00 | 0.00 | 81 | 1019.3 |
| 20260902135325 | 83 | 267 | 4.3 | 7.8 | 0.00 | 0.00 | 0.00 | 81 | 1019.3 |
| 20260902134839 | 83 | 250 | 2.6 | 5.2 | 0.00 | 0.00 | 0.00 | 83 | 1019.3 |
| 20260902134350 | 82 | 246 | 1.7 | 5.2 | 0.00 | 0.00 | 0.00 | 84 | 1019.3 |
| 20260902133822 | 82 | 215 | 1.7 | 6.1 | 0.00 | 0.00 | 0.00 | 84 | 1019.4 |
| 20260902133335 | 81 | 248 | 2.6 | 6.1 | 0.00 | 0.00 | 0.00 | 85 | 1019.4 |
| 20260902132826 | 81 | 233 | 3.5 | 5.2 | 0.00 | 0.00 | 0.00 | 85 | 1019.3 |
| 20260902132323 | 80 | 280 | 3.5 | 5.2 | 0.00 | 0.00 | 0.00 | 85 | 1019.3 |
| 20260902131815 | 80 | 243 | 2.6 | 5.2 | 0.00 | 0.00 | 0.00 | 87 | 1019.4 |
| 20260902131328 | 79 | 249 | 2.6 | 3.5 | 0.00 | 0.00 | 0.00 | 88 | 1019.3 |
| 20260902130821 | 79 | 271 | 1.7 | 5.2 | 0.00 | 0.00 | 0.00 | 89 | 1019.3 |
| 20260902130314 | 78 | 245 | 0.0 | 2.6 | 0.00 | 0.00 | 0.00 | 92 | 1019.3 |
| 20260902125847 | 78 | 232 | 0.9 | 2.6 | 0.00 | 0.00 | 0.00 | 93 | 1019.3 |
| 20260902125319 | 77 | 236 | 0.0 | 0.9 | 0.00 | 0.00 | 0.00 | 96 | 1019.3 |
| 20260902124811 | 77 | 212 | 0.0 | 0.0 | 0.00 | 0.00 | 0.00 | 97 | 1019.3 |
| 20260902124323 | 77 | 212 | 0.0 | 0.0 | 0.00 | 0.00 | 0.00 | 97 | 1019.3 |
| 20260902123819 | 76 | 212 | 0.0 | 0.0 | 0.00 | 0.00 | 0.00 | 97 | 1019.2 |
| 20260902123312 | 75 | 212 | 0.0 | 0.0 | 0.00 | 0.00 | 0.00 | 97 | 1019.2 |
| 20260902122825 | 74 | 212 | 0.0 | 0.0 | 0.00 | 0.00 | 0.00 | 97 | 1019.2 |
| 20260902122318 | 74 | 212 | 0.0 | 0.0 | 0.00 | 0.00 | 0.00 | 97 | 1019.2 |
| 20260902121811 | 73 | 212 | 0.0 | 0.0 | 0.00 | 0.00 | 0.00 | 97 | 1019.1 |
| 20260902121323 | 73 | 212 | 0.0 | 0.0 | 0.00 | 0.00 | 0.00 | 97 | 1019.2 |
| 20260902120816 | 73 | 212 | 0.0 | 0.0 | 0.00 | 0.00 | 0.00 | 97 | 1019.1 |
| 20260902120312 | 72 | 212 | 0.0 | 0.0 | 0.00 | 0.00 | 0.00 | 97 | 1019.0 |
| 20260902115825 | 71 | 212 | 0.0 | 0.0 | 0.00 | 0.00 | 0.00 | 97 | 1019.0 |
| 20260902115318 | 71 | 212 | 0.0 | 0.0 | 0.00 | 0.00 | 0.00 | 97 | 1019.0 |
| 20260902114811 | 70 | 212 | 0.0 | 0.0 | 0.00 | 0.00 | 0.00 | 97 | 1018.9 |
| 20260902114324 | 69 | 212 | 0.0 | 0.0 | 0.00 | 0.00 | 0.00 | 97 | 1018.9 |
| 20260902113817 | 69 | 212 | 0.0 | 0.0 | 0.00 | 0.00 | 0.00 | 97 | 1018.8 |
| 20260902113329 | 69 | 212 | 0.0 | 0.0 | 0.00 | 0.00 | 0.00 | 97 | 1018.7 |
| 20260902112822 | 68 | 212 | 0.0 | 0.0 | 0.00 | 0.00 | 0.00 | 97 | 1018.7 |
| 20260902112318 | 68 | 212 | 0.0 | 0.0 | 0.00 | 0.00 | 0.00 | 97 | 1018.6 |
| 20260902111811 | 68 | 212 | 0.0 | 0.0 | 0.00 | 0.00 | 0.00 | 97 | 1018.6 |
| 20260902111344 | 69 | 212 | 0.0 | 0.0 | 0.00 | 0.00 | 0.00 | 97 | 1018.5 |
| 20260902110816 | 69 | 212 | 0.0 | 0.0 | 0.00 | 0.00 | 0.00 | 97 | 1018.5 |
| 20260902110349 | 69 | 212 | 0.0 | 0.0 | 0.00 | 0.00 | 0.00 | 97 | 1018.4 |
| 20260902105820 | 69 | 212 | 0.0 | 0.0 | 0.00 | 0.00 | 0.00 | 97 | 1018.4 |
| 20260902105313 | 69 | 212 | 0.0 | 0.0 | 0.00 | 0.00 | 0.00 | 97 | 1018.5 |
| 20260902104826 | 69 | 212 | 0.0 | 0.0 | 0.00 | 0.00 | 0.00 | 97 | 1018.5 |
| 20260902104319 | 69 | 212 | 0.0 | 0.0 | 0.00 | 0.00 | 0.00 | 97 | 1018.5 |
| 20260902103816 | 69 | 212 | 0.0 | 0.0 | 0.00 | 0.00 | 0.00 | 97 | 1018.5 |
| 20260902103329 | 69 | 212 | 0.0 | 0.0 | 0.00 | 0.00 | 0.00 | 97 | 1018.5 |
| 20260902102821 | 69 | 212 | 0.0 | 0.0 | 0.00 | 0.00 | 0.00 | 97 | 1018.5 |
| 20260902102333 | 69 | 212 | 0.0 | 0.0 | 0.00 | 0.00 | 0.00 | 97 | 1018.5 |
| 20260902101845 | 69 | 212 | 0.0 | 0.0 | 0.00 | 0.00 | 0.00 | 97 | 1018.4 |
| 20260902101317 | 68 | 212 | 0.0 | 0.0 | 0.00 | 0.00 | 0.00 | 97 | 1018.5 |
| 20260902100810 | 68 | 212 | 0.0 | 0.0 | 0.00 | 0.00 | 0.00 | 97 | 1018.4 |
| 20260902100323 | 68 | 212 | 0.0 | 0.0 | 0.00 | 0.00 | 0.00 | 97 | 1018.4 |
| 20260902095816 | 67 | 212 | 0.0 | 0.0 | 0.00 | 0.00 | 0.00 | 97 | 1018.4 |
| 20260902095312 | 68 | 212 | 0.0 | 0.0 | 0.00 | 0.00 | 0.00 | 97 | 1018.4 |
| 20260902094825 | 68 | 212 | 0.0 | 0.0 | 0.00 | 0.00 | 0.00 | 97 | 1018.4 |
| 20260902094318 | 68 | 212 | 0.0 | 0.0 | 0.00 | 0.00 | 0.00 | 97 | 1018.3 |
| 20260902093811 | 68 | 212 | 0.0 | 0.0 | 0.00 | 0.00 | 0.00 | 97 | 1018.3 |
| 20260902093324 | 68 | 212 | 0.0 | 0.0 | 0.00 | 0.00 | 0.00 | 97 | 1018.3 |
| 20260902092817 | 68 | 212 | 0.0 | 0.0 | 0.00 | 0.00 | 0.00 | 97 | 1018.3 |
| 20260902092350 | 68 | 212 | 0.0 | 0.0 | 0.00 | 0.00 | 0.00 | 97 | 1018.3 |
| 20260902091821 | 68 | 212 | 0.0 | 0.0 | 0.00 | 0.00 | 0.00 | 97 | 1018.3 |
| 20260902091314 | 68 | 212 | 0.0 | 0.0 | 0.00 | 0.00 | 0.00 | 97 | 1018.2 |
| 20260902090811 | 68 | 212 | 0.0 | 0.0 | 0.00 | 0.00 | 0.00 | 97 | 1018.1 |
| 20260902090324 | 68 | 212 | 0.0 | 0.0 | 0.00 | 0.00 | 0.00 | 97 | 1018.2 |
| 20260902085816 | 68 | 212 | 0.0 | 0.0 | 0.00 | 0.00 | 0.00 | 97 | 1018.2 |
| 20260902085310 | 68 | 212 | 0.0 | 0.0 | 0.00 | 0.00 | 0.00 | 97 | 1018.2 |
| 20260902084822 | 68 | 212 | 0.0 | 0.0 | 0.00 | 0.00 | 0.00 | 97 | 1018.2 |
| 20260902084316 | 68 | 212 | 0.0 | 0.0 | 0.00 | 0.00 | 0.00 | 97 | 1018.1 |
| 20260902083828 | 68 | 212 | 0.0 | 0.0 | 0.00 | 0.00 | 0.00 | 97 | 1018.0 |
| 20260902083321 | 68 | 212 | 0.0 | 0.0 | 0.00 | 0.00 | 0.00 | 97 | 1018.0 |
| 20260902082818 | 69 | 212 | 0.0 | 0.0 | 0.00 | 0.00 | 0.00 | 97 | 1017.9 |
| 20260902082310 | 69 | 212 | 0.0 | 0.0 | 0.00 | 0.00 | 0.00 | 97 | 1017.7 |
| 20260902081823 | 69 | 212 | 0.0 | 0.0 | 0.00 | 0.00 | 0.00 | 97 | 1017.7 |
| 20260902081315 | 68 | 212 | 0.0 | 0.0 | 0.00 | 0.00 | 0.00 | 97 | 1017.7 |
| 20260902080829 | 68 | 212 | 0.0 | 0.0 | 0.00 | 0.00 | 0.00 | 97 | 1017.8 |
| 20260902080341 | 68 | 212 | 0.0 | 0.0 | 0.00 | 0.00 | 0.00 | 97 | 1017.7 |
| 20260902075813 | 68 | 212 | 0.0 | 0.0 | 0.00 | 0.00 | 0.00 | 97 | 1017.7 |
| 20260902075326 | 68 | 212 | 0.0 | 0.0 | 0.00 | 0.00 | 0.00 | 97 | 1017.7 |
| 20260902074823 | 69 | 212 | 0.0 | 0.0 | 0.00 | 0.00 | 0.00 | 97 | 1017.7 |
| 20260902074316 | 69 | 212 | 0.0 | 0.0 | 0.00 | 0.00 | 0.00 | 97 | 1017.7 |
| 20260902073828 | 69 | 212 | 0.0 | 0.0 | 0.00 | 0.00 | 0.00 | 97 | 1017.7 |
| 20260902073322 | 69 | 212 | 0.0 | 0.0 | 0.00 | 0.00 | 0.00 | 97 | 1017.6 |
| 20260902072814 | 69 | 212 | 0.0 | 0.0 | 0.00 | 0.00 | 0.00 | 97 | 1017.6 |
| 20260902072347 | 69 | 212 | 0.0 | 0.0 | 0.00 | 0.00 | 0.00 | 97 | 1017.6 |
| 20260902071819 | 69 | 212 | 0.0 | 0.0 | 0.00 | 0.00 | 0.00 | 97 | 1017.6 |
| 20260902071332 | 69 | 212 | 0.0 | 0.0 | 0.00 | 0.00 | 0.00 | 97 | 1017.7 |
| 20260902070823 | 69 | 212 | 0.0 | 0.0 | 0.00 | 0.00 | 0.00 | 97 | 1017.7 |
| 20260902070321 | 69 | 212 | 0.0 | 0.0 | 0.00 | 0.00 | 0.00 | 97 | 1017.7 |
| 20260902065813 | 69 | 212 | 0.0 | 0.0 | 0.00 | 0.00 | 0.00 | 97 | 1017.7 |
| 20260902065325 | 69 | 212 | 0.0 | 0.0 | 0.00 | 0.00 | 0.00 | 97 | 1017.7 |
| 20260902064818 | 69 | 212 | 0.0 | 0.0 | 0.00 | 0.00 | 0.00 | 97 | 1017.7 |
| 20260902064310 | 69 | 212 | 0.0 | 0.0 | 0.00 | 0.00 | 0.00 | 97 | 1017.8 |
| 20260902063823 | 69 | 212 | 0.0 | 0.0 | 0.00 | 0.00 | 0.00 | 97 | 1017.8 |
| 20260902063335 | 69 | 212 | 0.0 | 0.0 | 0.00 | 0.00 | 0.00 | 97 | 1017.7 |
| 20260902062828 | 70 | 212 | 0.0 | 0.0 | 0.00 | 0.00 | 0.00 | 97 | 1017.8 |
| 20260902062320 | 70 | 212 | 0.0 | 0.0 | 0.00 | 0.00 | 0.00 | 97 | 1017.8 |
| 20260902061817 | 70 | 212 | 0.0 | 0.0 | 0.00 | 0.00 | 0.00 | 97 | 1017.8 |
| 20260902061310 | 70 | 212 | 0.0 | 0.0 | 0.00 | 0.00 | 0.00 | 97 | 1017.8 |
| 20260902060843 | 70 | 212 | 0.0 | 0.0 | 0.00 | 0.00 | 0.00 | 97 | 1017.8 |
| 20260902060314 | 70 | 212 | 0.0 | 0.0 | 0.00 | 0.00 | 0.00 | 97 | 1017.8 |
| 20260902055828 | 70 | 212 | 0.0 | 0.0 | 0.00 | 0.00 | 0.00 | 97 | 1017.8 |
| 20260902055320 | 70 | 212 | 0.0 | 0.0 | 0.00 | 0.00 | 0.00 | 97 | 1017.8 |
| 20260902054833 | 70 | 212 | 0.0 | 0.0 | 0.00 | 0.00 | 0.00 | 97 | 1017.9 |
| 20260902054325 | 70 | 212 | 0.0 | 0.0 | 0.00 | 0.00 | 0.00 | 97 | 1017.8 |
| 20260902053818 | 70 | 212 | 0.0 | 0.0 | 0.00 | 0.00 | 0.00 | 97 | 1017.9 |
| 20260902053315 | 70 | 212 | 0.0 | 0.0 | 0.00 | 0.00 | 0.00 | 97 | 1017.9 |
| 20260902052826 | 70 | 212 | 0.0 | 0.0 | 0.00 | 0.00 | 0.00 | 97 | 1017.9 |
| 20260902052319 | 70 | 212 | 0.0 | 0.0 | 0.00 | 0.00 | 0.00 | 97 | 1017.9 |
| 20260902051812 | 70 | 212 | 0.0 | 0.0 | 0.00 | 0.00 | 0.00 | 97 | 1017.9 |
| 20260902051325 | 70 | 212 | 0.0 | 0.0 | 0.00 | 0.00 | 0.00 | 97 | 1017.9 |
| 20260902050818 | 71 | 212 | 0.0 | 0.0 | 0.00 | 0.00 | 0.00 | 97 | 1017.9 |
| 20260902050331 | 71 | 212 | 0.0 | 0.0 | 0.00 | 0.00 | 0.00 | 97 | 1017.9 |
| 20260902045823 | 71 | 212 | 0.0 | 0.0 | 0.00 | 0.00 | 0.00 | 97 | 1017.9 |
| 20260902045319 | 71 | 212 | 0.0 | 0.0 | 0.00 | 0.00 | 0.00 | 96 | 1017.8 |
| 20260902044812 | 71 | 212 | 0.0 | 0.0 | 0.00 | 0.00 | 0.00 | 96 | 1017.9 |
| 20260902044325 | 71 | 212 | 0.0 | 0.0 | 0.00 | 0.00 | 0.00 | 96 | 1017.9 |
| 20260902043818 | 71 | 212 | 0.0 | 0.0 | 0.00 | 0.00 | 0.00 | 96 | 1017.9 |
| 20260902043311 | 71 | 212 | 0.0 | 0.0 | 0.00 | 0.00 | 0.00 | 96 | 1017.9 |
| 20260902042824 | 71 | 212 | 0.0 | 0.0 | 0.00 | 0.00 | 0.00 | 96 | 1017.9 |
| 20260902042317 | 71 | 212 | 0.0 | 0.0 | 0.00 | 0.00 | 0.00 | 96 | 1017.9 |
| 20260902041810 | 72 | 212 | 0.0 | 0.0 | 0.00 | 0.00 | 0.00 | 96 | 1017.9 |
| 20260902041343 | 72 | 212 | 0.0 | 0.0 | 0.00 | 0.00 | 0.00 | 96 | 1017.9 |
| 20260902040839 | 72 | 212 | 0.0 | 0.0 | 0.00 | 0.00 | 0.00 | 96 | 1017.8 |
| 20260902040310 | 72 | 212 | 0.0 | 0.0 | 0.00 | 0.00 | 0.00 | 96 | 1017.9 |
| 20260902035823 | 72 | 212 | 0.0 | 0.0 | 0.00 | 0.00 | 0.00 | 96 | 1017.9 |
| 20260902035316 | 72 | 212 | 0.0 | 0.0 | 0.00 | 0.00 | 0.00 | 96 | 1017.9 |
| 20260902034827 | 72 | 212 | 0.0 | 0.0 | 0.00 | 0.00 | 0.00 | 96 | 1017.9 |
| 20260902034321 | 72 | 212 | 0.0 | 0.0 | 0.00 | 0.00 | 0.00 | 96 | 1017.9 |
| 20260902033813 | 72 | 212 | 0.0 | 0.0 | 0.00 | 0.00 | 0.00 | 96 | 1017.9 |
| 20260902033326 | 72 | 212 | 0.0 | 0.0 | 0.00 | 0.00 | 0.00 | 95 | 1017.9 |
| 20260902032823 | 72 | 212 | 0.0 | 0.0 | 0.00 | 0.00 | 0.00 | 95 | 1017.9 |
| 20260902032316 | 72 | 212 | 0.0 | 0.0 | 0.00 | 0.00 | 0.00 | 95 | 1017.9 |
| 20260902031829 | 73 | 212 | 0.0 | 0.0 | 0.00 | 0.00 | 0.00 | 95 | 1017.9 |
| 20260902031322 | 73 | 212 | 0.0 | 0.0 | 0.00 | 0.00 | 0.00 | 95 | 1018.0 |
| 20260902030815 | 73 | 212 | 0.0 | 0.0 | 0.00 | 0.00 | 0.00 | 95 | 1017.9 |
| 20260902030328 | 73 | 212 | 0.0 | 0.0 | 0.00 | 0.00 | 0.00 | 95 | 1017.8 |
| 20260902025820 | 73 | 212 | 0.0 | 0.0 | 0.00 | 0.00 | 0.00 | 95 | 1017.9 |
| 20260902025313 | 73 | 212 | 0.0 | 0.0 | 0.00 | 0.00 | 0.00 | 95 | 1017.9 |
| 20260902024846 | 73 | 212 | 0.0 | 0.0 | 0.00 | 0.00 | 0.00 | 95 | 1017.9 |
| 20260902024322 | 73 | 212 | 0.0 | 0.0 | 0.00 | 0.00 | 0.00 | 95 | 1017.9 |
| 20260902023815 | 73 | 212 | 0.0 | 0.0 | 0.00 | 0.00 | 0.00 | 95 | 1017.9 |
| 20260902023327 | 73 | 212 | 0.0 | 0.0 | 0.00 | 0.00 | 0.00 | 95 | 1017.9 |
| 20260902022820 | 74 | 212 | 0.0 | 0.0 | 0.00 | 0.00 | 0.00 | 95 | 1017.9 |
| 20260902022312 | 74 | 212 | 0.0 | 0.0 | 0.00 | 0.00 | 0.00 | 95 | 1017.8 |
| 20260902021824 | 74 | 212 | 0.0 | 0.0 | 0.00 | 0.00 | 0.00 | 94 | 1017.9 |
| 20260902021317 | 74 | 212 | 0.0 | 0.0 | 0.00 | 0.00 | 0.00 | 94 | 1017.9 |
| 20260902020814 | 74 | 212 | 0.0 | 0.0 | 0.00 | 0.00 | 0.00 | 94 | 1017.9 |
| 20260902020346 | 74 | 212 | 0.0 | 0.0 | 0.00 | 0.00 | 0.00 | 93 | 1017.8 |
| 20260902015818 | 74 | 212 | 0.0 | 0.0 | 0.00 | 0.00 | 0.00 | 93 | 1017.8 |
| 20260902015310 | 75 | 212 | 0.0 | 0.0 | 0.00 | 0.00 | 0.00 | 93 | 1017.7 |
| 20260902014823 | 75 | 212 | 0.0 | 0.0 | 0.00 | 0.00 | 0.00 | 93 | 1017.8 |
| 20260902014316 | 75 | 212 | 0.0 | 0.0 | 0.00 | 0.00 | 0.00 | 93 | 1017.7 |
| 20260902013848 | 75 | 212 | 0.0 | 0.0 | 0.00 | 0.00 | 0.00 | 93 | 1017.7 |
| 20260902013340 | 76 | 212 | 0.0 | 0.0 | 0.00 | 0.00 | 0.00 | 92 | 1017.7 |
| 20260902012812 | 76 | 212 | 0.0 | 0.0 | 0.00 | 0.00 | 0.00 | 92 | 1017.7 |
| 20260902012345 | 76 | 212 | 0.0 | 0.0 | 0.00 | 0.00 | 0.00 | 91 | 1017.6 |
| 20260902011816 | 76 | 212 | 0.0 | 0.0 | 0.00 | 0.00 | 0.00 | 91 | 1017.5 |
| 20260902011314 | 76 | 212 | 0.0 | 0.0 | 0.00 | 0.00 | 0.00 | 91 | 1017.4 |
| 20260902010826 | 77 | 212 | 0.0 | 0.0 | 0.00 | 0.00 | 0.00 | 90 | 1017.4 |
| 20260902010319 | 77 | 212 | 0.0 | 0.0 | 0.00 | 0.00 | 0.00 | 90 | 1017.3 |
| 20260902005812 | 77 | 212 | 0.0 | 0.0 | 0.00 | 0.00 | 0.00 | 89 | 1017.3 |
| 20260902005325 | 78 | 212 | 0.0 | 0.0 | 0.00 | 0.00 | 0.00 | 89 | 1017.2 |
| 20260902004818 | 78 | 212 | 0.0 | 0.0 | 0.00 | 0.00 | 0.00 | 87 | 1017.2 |
| 20260902004331 | 79 | 212 | 0.0 | 0.0 | 0.00 | 0.00 | 0.00 | 85 | 1017.1 |
| 20260902003822 | 79 | 212 | 0.0 | 0.0 | 0.00 | 0.00 | 0.00 | 84 | 1017.1 |
| 20260902003319 | 80 | 212 | 0.0 | 0.0 | 0.00 | 0.00 | 0.00 | 84 | 1017.2 |
| 20260902002811 | 81 | 212 | 0.0 | 0.0 | 0.00 | 0.00 | 0.00 | 82 | 1017.1 |
| 20260902002324 | 82 | 212 | 0.0 | 0.0 | 0.00 | 0.00 | 0.00 | 81 | 1017.1 |
| 20260902001816 | 83 | 212 | 0.0 | 0.0 | 0.00 | 0.00 | 0.00 | 79 | 1017.2 |
| 20260902001309 | 84 | 212 | 0.0 | 0.0 | 0.00 | 0.00 | 0.00 | 78 | 1017.2 |
| 20260902000843 | 85 | 212 | 0.0 | 0.0 | 0.00 | 0.00 | 0.00 | 77 | 1017.2 |
| 20260902000314 | 86 | 212 | 0.0 | 0.0 | 0.00 | 0.00 | 0.00 | 75 | 1017.3 |
| 20260901235825 | 87 | 212 | 0.0 | 0.0 | 0.00 | 0.00 | 0.00 | 74 | 1017.4 |
| 20260901235317 | 88 | 212 | 0.0 | 0.0 | 0.00 | 0.00 | 0.00 | 72 | 1017.3 |
| 20260901234814 | 89 | 212 | 0.0 | 0.0 | 0.00 | 0.00 | 0.00 | 70 | 1017.3 |
| 20260901234327 | 90 | 212 | 0.0 | 0.0 | 0.00 | 0.00 | 0.00 | 70 | 1017.4 |
| 20260901233819 | 90 | 212 | 0.0 | 0.9 | 0.00 | 0.00 | 0.00 | 69 | 1017.4 |
| 20260901233332 | 91 | 212 | 0.0 | 0.0 | 0.00 | 0.00 | 0.00 | 68 | 1017.5 |
| 20260901232823 | 91 | 212 | 0.0 | 0.0 | 0.00 | 0.00 | 0.00 | 68 | 1017.5 |
| 20260901232316 | 91 | 212 | 0.0 | 1.7 | 0.00 | 0.00 | 0.00 | 68 | 1017.6 |
| 20260901231829 | 91 | 212 | 0.0 | 1.7 | 0.00 | 0.00 | 0.00 | 68 | 1017.5 |
| 20260901231321 | 91 | 210 | 0.0 | 2.6 | 0.00 | 0.00 | 0.00 | 66 | 1017.6 |
| 20260901230819 | 92 | 226 | 0.0 | 1.7 | 0.00 | 0.00 | 0.00 | 66 | 1017.6 |
| 20260901230332 | 92 | 227 | 0.0 | 1.7 | 0.00 | 0.00 | 0.00 | 65 | 1017.6 |
| 20260901225823 | 92 | 209 | 0.0 | 0.9 | 0.00 | 0.00 | 0.00 | 66 | 1017.6 |
| 20260901225315 | 92 | 242 | 0.0 | 1.7 | 0.00 | 0.00 | 0.00 | 64 | 1017.5 |
| 20260901224828 | 92 | 242 | 0.0 | 1.7 | 0.00 | 0.00 | 0.00 | 65 | 1017.5 |
| 20260901224321 | 92 | 238 | 0.0 | 2.6 | 0.00 | 0.00 | 0.00 | 65 | 1017.5 |
| 20260901223814 | 92 | 219 | 0.0 | 5.2 | 0.00 | 0.00 | 0.00 | 65 | 1017.5 |
| 20260901223327 | 92 | 210 | 0.9 | 5.2 | 0.00 | 0.00 | 0.00 | 63 | 1017.5 |
| 20260901222819 | 92 | 218 | 0.9 | 3.5 | 0.00 | 0.00 | 0.00 | 65 | 1017.5 |
| 20260901222316 | 92 | 233 | 0.9 | 5.2 | 0.00 | 0.00 | 0.00 | 63 | 1017.5 |
| 20260901221828 | 92 | 219 | 0.9 | 5.2 | 0.00 | 0.00 | 0.00 | 63 | 1017.6 |
| 20260901221321 | 93 | 254 | 0.9 | 4.3 | 0.00 | 0.00 | 0.00 | 62 | 1017.6 |
| 20260901220813 | 93 | 253 | 0.9 | 3.5 | 0.00 | 0.00 | 0.00 | 64 | 1017.6 |
| 20260901220326 | 92 | 193 | 0.9 | 4.3 | 0.00 | 0.00 | 0.00 | 61 | 1017.5 |
| 20260901215819 | 93 | 240 | 1.7 | 6.1 | 0.00 | 0.00 | 0.00 | 62 | 1017.4 |
| 20260901215312 | 92 | 248 | 0.9 | 6.1 | 0.00 | 0.00 | 0.00 | 64 | 1017.4 |
| 20260901214825 | 92 | 219 | 1.7 | 7.0 | 0.00 | 0.00 | 0.00 | 65 | 1017.4 |
| 20260901214321 | 92 | 234 | 1.7 | 7.0 | 0.00 | 0.00 | 0.00 | 62 | 1017.4 |
| 20260901213814 | 93 | 136 | 1.7 | 5.2 | 0.00 | 0.00 | 0.00 | 64 | 1017.4 |
| 20260901213326 | 93 | 229 | 1.7 | 5.2 | 0.00 | 0.00 | 0.00 | 64 | 1017.4 |
| 20260901212816 | 92 | 250 | 2.6 | 5.2 | 0.00 | 0.00 | 0.00 | 61 | 1017.5 |
| 20260901212329 | 93 | 233 | 1.7 | 7.0 | 0.00 | 0.00 | 0.00 | 62 | 1017.4 |
| 20260901211822 | 93 | 236 | 0.9 | 7.0 | 0.00 | 0.00 | 0.00 | 64 | 1017.4 |
| 20260901211315 | 93 | 247 | 2.6 | 6.1 | 0.00 | 0.00 | 0.00 | 65 | 1017.5 |
| 20260901210811 | 93 | 239 | 1.7 | 4.3 | 0.00 | 0.00 | 0.00 | 63 | 1017.5 |
| 20260901210323 | 93 | 162 | 0.9 | 7.0 | 0.00 | 0.00 | 0.00 | 62 | 1017.5 |
| 20260901205816 | 92 | 201 | 1.7 | 8.7 | 0.00 | 0.00 | 0.00 | 62 | 1017.6 |
| 20260901205329 | 93 | 288 | 3.5 | 8.7 | 0.00 | 0.00 | 0.00 | 64 | 1017.5 |
| 20260901204821 | 93 | 211 | 0.9 | 8.7 | 0.00 | 0.00 | 0.00 | 64 | 1017.6 |
| 20260901204314 | 93 | 266 | 1.7 | 6.1 | 0.00 | 0.00 | 0.00 | 64 | 1017.6 |
| 20260901203827 | 93 | 236 | 2.6 | 6.1 | 0.00 | 0.00 | 0.00 | 63 | 1017.6 |
| 20260901203340 | 93 | 209 | 1.7 | 7.0 | 0.00 | 0.00 | 0.00 | 63 | 1017.6 |
| 20260901202812 | 92 | 197 | 1.7 | 9.6 | 0.00 | 0.00 | 0.00 | 63 | 1017.7 |
| 20260901202345 | 92 | 253 | 3.5 | 9.6 | 0.00 | 0.00 | 0.00 | 62 | 1017.7 |
| 20260901201821 | 93 | 203 | 2.6 | 6.1 | 0.00 | 0.00 | 0.00 | 61 | 1017.7 |
| 20260901201314 | 93 | 205 | 1.7 | 6.1 | 0.00 | 0.00 | 0.00 | 61 | 1017.7 |
| 20260901200826 | 92 | 269 | 3.5 | 6.1 | 0.00 | 0.00 | 0.00 | 61 | 1017.6 |
| 20260901200319 | 92 | 214 | 2.6 | 7.0 | 0.00 | 0.00 | 0.00 | 66 | 1017.6 |
| 20260901195812 | 92 | 218 | 2.6 | 8.7 | 0.00 | 0.00 | 0.00 | 63 | 1017.6 |
| 20260901195325 | 92 | 250 | 4.3 | 10.4 | 0.00 | 0.00 | 0.00 | 63 | 1017.6 |